Crescent City, CA

8:43 AM PDT on June 25, 2017 (GMT -0700)
McNamara

Weather History for KCEC - March, 2014

Change the Weather History Date:

Friday, March 28, 2014

  Actual Average Record
Temperature  
Mean Temperature 53 °F 49 °F  
Max Temperature 54 °F 55 °F 68 °F (1969)
Min Temperature 51 °F 43 °F 31 °F (1998)
Degree Days  
Heating Degree Days 12 16  
Month to date heating degree days 462  
Since 1 July heating degree days 3635  
Cooling Degree Days 0 0  
Month to date cooling degree days 0  
Year to date cooling degree days 0  
Growing Degree Days 2 (Base 50)    
Moisture  
Dew Point 51 °F    
Average Humidity 92    
Maximum Humidity 100    
Minimum Humidity 83    
Precipitation  
Precipitation 0.86 in 0.27 in 1.42 in (2005)
Month to date precipitation 6.11 6.99  
Year to date precipitation 17.75 26.26  
Since 1 July precipitation 26.74  
Snow  
Snow 0.00 in - - ()
Month to date snowfall 0.0  
Since 1 July snowfall 0.0  
Snow Depth -    
Sea Level Pressure  
Sea Level Pressure 29.93 in    
Wind  
Wind Speed 23 mph (SSE)    
Max Wind Speed 30 mph    
Max Gust Speed 38 mph    
Visibility 6 miles    
Events Rain    
T = Trace of Precipitation, MM = Missing Value Source: NWS Daily Summary

Daily Weather History Graph

Daily Weather History Graph

Search for Another Location

Airport or City:

Trip Planner

Search our weather history database for the weather conditions in past years. The results will help you decide how hot, cold, wet, or windy it might be!

Date:

Astronomy

Mar. 28, 2014 Rise Set
Actual Time 7:06 AM PDT 7:38 PM PDT
Civil Twilight 6:38 AM PDT 8:06 PM PDT
Nautical Twilight 6:05 AM PDT 8:39 PM PDT
Astronomical Twilight 5:31 AM PDT 9:13 PM PDT
Moon 5:42 AM PDT (3/28) 5:39 PM PDT (3/28)
Length of Visible Light 13h 27m
Length of Day
12h 31m
Waning Crescent, 5% of the Moon is Illuminated
Mar 28
Waning Crescent
Mar 30
New
Apr 7
First Quarter
Apr 15
Full
Apr 22
Last Quarter

Hourly Weather History & Observations

Time (PDT) Temp. Dew Point Humidity Pressure Visibility Wind Dir Wind Speed Gust Speed Precip Events Conditions
12:56 AM 51.1 °F 48.0 °F 89% 30.00 in 9.0 mi SSE 15.0 mph - 0.00 in Rain Light Rain
1:11 AM 51.1 °F 48.0 °F 89% 29.99 in 7.0 mi SSE 13.8 mph - 0.00 in Rain Light Rain
1:28 AM 51.1 °F 48.0 °F 89% 29.99 in 10.0 mi SSE 12.7 mph - 0.00 in Rain Light Rain
1:56 AM 51.1 °F 48.0 °F 89% 29.99 in 8.0 mi SSE 17.3 mph 24.2 mph 0.02 in Rain Light Rain
2:56 AM 52.0 °F 48.0 °F 86% 29.98 in 10.0 mi SSE 17.3 mph - 0.01 in   Overcast
3:56 AM 53.1 °F 48.0 °F 83% 29.95 in 10.0 mi SE 23.0 mph - 0.00 in   Overcast
4:56 AM 54.0 °F 46.9 °F 77% 29.93 in 10.0 mi SSE 21.9 mph - 0.01 in Rain Light Rain
5:56 AM 54.0 °F 46.9 °F 77% 29.92 in 10.0 mi SSE 21.9 mph 28.8 mph 0.01 in Rain Light Rain
6:56 AM 52.0 °F 48.0 °F 86% 29.93 in 10.0 mi SSE 12.7 mph - 0.11 in   Overcast
7:36 AM 52.0 °F 48.9 °F 89% 29.93 in 10.0 mi SSE 18.4 mph 27.6 mph 0.00 in Rain Light Rain
7:56 AM 52.0 °F 48.9 °F 89% 29.93 in 10.0 mi SSE 15.0 mph 25.3 mph 0.00 in Rain Light Rain
8:56 AM 53.1 °F 48.9 °F 86% 29.93 in 5.0 mi SSE 17.3 mph 26.5 mph 0.03 in Rain Rain
9:21 AM 52.0 °F 50.0 °F 93% 29.94 in 2.0 mi SSE 15.0 mph - 0.12 in Rain Heavy Rain
9:38 AM 52.0 °F 50.0 °F 93% 29.93 in 3.0 mi SSE 18.4 mph 24.2 mph 0.18 in Rain Rain
9:56 AM 52.0 °F 51.1 °F 97% 29.93 in 4.0 mi SSE 18.4 mph 27.6 mph 0.21 in Rain Light Rain
10:38 AM 53.1 °F 51.1 °F 93% 29.93 in 2.0 mi SSE 19.6 mph 26.5 mph 0.03 in Rain Light Rain
10:49 AM 53.1 °F 51.1 °F 93% 29.94 in 7.0 mi SSE 20.7 mph 31.1 mph 0.03 in Rain Light Rain
10:56 AM 53.1 °F 51.1 °F 93% 29.94 in 8.0 mi SSE 24.2 mph 31.1 mph 0.03 in Rain Light Rain
11:56 AM 53.1 °F 51.1 °F 93% 29.93 in 9.0 mi SSE 21.9 mph 32.2 mph 0.01 in Rain Light Rain
12:06 PM 53.1 °F 51.1 °F 93% 29.93 in 1.8 mi South 21.9 mph 31.1 mph 0.05 in Rain Rain
12:22 PM 53.1 °F 51.1 °F 93% 29.94 in 1.2 mi South 27.6 mph 34.5 mph 0.12 in Rain Rain
12:39 PM 53.1 °F 52.0 °F 96% 29.94 in 2.0 mi SSE 24.2 mph 34.5 mph 0.22 in Rain Heavy Rain
12:45 PM 53.1 °F 52.0 °F 96% 29.94 in 3.0 mi South 23.0 mph 32.2 mph 0.23 in Rain Rain
12:52 PM 53.6 °F 51.8 °F 94% 29.94 in 3.0 mi South 26.5 mph 32.2 mph 0.25 in Rain Rain
12:54 PM 53.6 °F 51.8 °F 94% 29.93 in 2.5 mi SSE 24.2 mph 32.2 mph 0.25 in Rain Rain
12:56 PM 53.1 °F 52.0 °F 96% 29.94 in 2.5 mi SSE 26.5 mph 33.4 mph 0.26 in Rain Rain
1:05 PM 53.1 °F 52.0 °F 96% 29.93 in 3.0 mi South 25.3 mph 33.4 mph 0.01 in Rain Light Rain
1:12 PM 53.1 °F 52.0 °F 96% 29.93 in 1.8 mi SSE 24.2 mph 34.5 mph 0.04 in Rain Rain
1:16 PM 53.1 °F 52.0 °F 96% 29.93 in 2.0 mi South 25.3 mph 34.5 mph 0.04 in Rain Rain
1:21 PM 53.1 °F 52.0 °F 96% 29.93 in 3.0 mi South 25.3 mph 32.2 mph 0.05 in Rain Light Rain
1:46 PM 53.1 °F 53.1 °F 100% 29.93 in 1.8 mi South 26.5 mph 32.2 mph 0.06 in Rain Light Rain
1:56 PM 54.0 °F 53.1 °F 97% 29.94 in 2.0 mi South 29.9 mph 35.7 mph 0.06 in Rain Light Rain
2:05 PM 54.0 °F 53.1 °F 97% 29.94 in 3.0 mi South 25.3 mph 38.0 mph 0.00 in Rain Light Rain
2:56 PM 53.1 °F 52.0 °F 96% 29.94 in 6.0 mi South 24.2 mph - 0.00 in   Overcast
3:33 PM 53.1 °F 52.0 °F 96% 29.92 in 2.0 mi South 24.2 mph 33.4 mph 0.05 in Rain Rain
3:45 PM 53.1 °F 52.0 °F 96% 29.91 in 5.0 mi South 25.3 mph 33.4 mph 0.05 in Rain Light Rain
3:56 PM 53.1 °F 53.1 °F 100% 29.91 in 6.0 mi South 21.9 mph 33.4 mph 0.05 in Rain Light Rain
4:56 PM 53.1 °F 52.0 °F 96% 29.91 in 4.0 mi South 18.4 mph 26.5 mph 0.03 in Rain Light Rain
5:15 PM 53.1 °F 52.0 °F 96% 29.89 in 1.8 mi South 18.4 mph 28.8 mph 0.07 in Rain Heavy Rain
5:28 PM 53.1 °F 52.0 °F 96% 29.88 in 3.0 mi South 21.9 mph 29.9 mph 0.10 in Rain Light Rain
5:56 PM 53.1 °F 52.0 °F 96% 29.91 in 4.0 mi South 23.0 mph - 0.11 in Rain Light Rain
6:30 PM 53.1 °F 52.0 °F 96% 29.90 in 4.0 mi South 21.9 mph - 0.02 in Rain Light Rain
6:43 PM 53.1 °F 52.0 °F 96% 29.90 in 5.0 mi SSE 23.0 mph - 0.03 in Rain Light Rain
6:56 PM 52.0 °F 52.0 °F 100% 29.90 in 7.0 mi SSE 19.6 mph - 0.04 in   Overcast
7:06 PM 52.0 °F 51.1 °F 97% 29.89 in 1.8 mi SSE 19.6 mph - 0.03 in Rain Heavy Rain
7:15 PM 52.0 °F 52.0 °F 100% 29.89 in 3.0 mi South 21.9 mph 28.8 mph 0.04 in Rain Light Rain
7:42 PM 52.0 °F 52.0 °F 100% 29.90 in 2.5 mi SSW 12.7 mph - 0.12 in Rain Heavy Rain
7:53 PM 51.8 °F 51.8 °F 100% 29.90 in 3.0 mi SSW 13.8 mph - 0.13 in Rain Rain
7:56 PM 52.0 °F 52.0 °F 100% 29.91 in 3.0 mi SSW 13.8 mph - 0.14 in Rain Light Rain
8:03 PM 52.0 °F 52.0 °F 100% 29.90 in 4.0 mi SSW 12.7 mph - 0.01 in Rain Rain
8:32 PM 51.1 °F 51.1 °F 100% 29.90 in 10.0 mi South 12.7 mph - 0.03 in   Overcast
8:49 PM 52.0 °F 51.1 °F 97% 29.91 in 8.0 mi South 11.5 mph - 0.03 in   Overcast
8:56 PM 52.0 °F 51.1 °F 97% 29.91 in 9.0 mi South 11.5 mph - 0.03 in   Overcast
9:20 PM 52.0 °F 51.1 °F 97% 29.92 in 8.0 mi South 10.4 mph - N/A   Overcast
9:56 PM 52.0 °F 51.1 °F 97% 29.93 in 9.0 mi SE 9.2 mph - N/A   Overcast
10:22 PM 51.1 °F 51.1 °F 100% 29.93 in 9.0 mi SSE 10.4 mph - 0.00 in   Overcast
10:28 PM 51.1 °F 51.1 °F 100% 29.93 in 7.0 mi SSE 11.5 mph - 0.00 in Rain Light Rain
10:56 PM 51.1 °F 50.0 °F 96% 29.95 in 9.0 mi SSE 12.7 mph - 0.01 in Rain Light Rain
11:03 PM 51.1 °F 50.0 °F 96% 29.95 in 9.0 mi SSE 12.7 mph - 0.00 in   Overcast
11:56 PM 51.1 °F 50.0 °F 96% 29.97 in 10.0 mi SSE 13.8 mph - 0.00 in   Overcast